Weather in Empuriabrava

Spain     42°15′00″N   3°07′03″E
temp.,
°C
wind,
m/s
gust,
m/s
humid.,
%
clouds,
%
prec.,
mm/h
press.,
hPa
HPBL,
m
20 january, wed
wed2001:00+3nw12850 0.0 101922
04:00+2w12820 0.0 101723
07:00+3sw248314 0.0 101581
10:00+9ssw61475100 0.0 1013532
13:00+14ssw9136196 0.0 10121013
16:00+13s8136497 0.0 1009851
19:00+9ssw6127799 0.0 1009391
22:00+10ssw91770100 0.0 1009728
21 january, thu
thu2101:00+9sw5136871 0.0 1008414
04:00+8wsw377956 0.0 1008155
07:00+6nw227628 0.0 100923
10:00+9wnw11650 0.0 101052
13:00+14s225526 0.0 1009406
16:00+14ssw386473 0.0 1007731
19:00+9nnw237987 0.0 100827
22:00+8sw2282100 0.0 100823
22 january, fri
fri2201:00+6wnw228399 0.0 100831
04:00+7wsw2379100 0.0 100643
07:00+10sw61476100 0.0 1003429
10:00+12ssw51775100 0.0 9991097
13:00+11sw7147367 5.1 996723
16:00+14n2372100 0.7 995290
19:00+9se228775 1.4 99930
22:00+7nw2468100 0.1 100374
23 january, sat
sat2301:00+7wnw2370100 0.1 100635
04:00+4nw227450 0.0 100624
07:00+3wnw227239 0.0 100622
10:00+5sw11640 0.0 100662
13:00+11ese23501 0.0 1006573
16:00+11se225130 0.0 1005377
19:00+6w117026 0.0 100722
22:00+5n227180 0.0 100625
24 january, sun
sun2401:00+5wnw117790 0.0 100422
04:00+7ne3781100 0.1 1000368
07:00+4n61292100 2.9 1001938
10:00+6n7147635 0.0 1005787
13:00+10nw575918 0.0 1006738
16:00+11s33540 0.0 1006967
19:00+6ne348015 0.6 100982
22:00+4nnw348920 0.0 100965